K9DC Weather Reports


Display with metric or nautical units.
time (UTC)temp
F
wind
direction
speed
MPH
gust
MPH
rain 1hr
in
rain 24hr
in
rain mn
in
humidity
%
barometer
mb
20260510091003 58 59 1.0 5.0 0.00 0.00 0.00 60 1011.9
20260510090504 58 59 1.0 5.0 0.00 0.00 0.00 59 1011.8
20260510090004 58 59 1.0 5.0 0.00 0.00 0.00 58 1011.8
20260510085503 58 59 1.0 5.0 0.00 0.00 0.00 60 1011.8
20260510085003 59 59 1.0 5.0 0.00 0.00 0.00 57 1011.4
20260510084503 59 59 1.0 5.0 0.00 0.00 0.00 56 1011.4
20260510084004 59 59 1.0 5.0 0.00 0.00 0.00 55 1011.4
20260510083505 59 59 1.0 5.0 0.00 0.00 0.00 55 1011.3
20260510083003 59 59 1.0 5.0 0.00 0.00 0.00 55 1011.3
20260510082503 59 59 1.0 5.0 0.00 0.00 0.00 54 1011.3
20260510082004 59 59 1.0 5.0 0.00 0.00 0.00 53 1011.3
20260510081503 59 59 1.0 5.0 0.00 0.00 0.00 53 1011.1
20260510081003 60 59 1.0 5.0 0.00 0.00 0.00 53 1010.9
20260510080503 60 59 1.0 5.0 0.00 0.00 0.00 53 1010.7
20260510080003 60 59 1.0 5.0 0.00 0.00 0.00 53 1010.8
20260510075505 60 59 1.0 5.0 0.00 0.00 0.00 53 1010.7
20260510075003 60 59 1.0 5.0 0.00 0.00 0.00 52 1010.7
20260510074503 60 59 1.0 5.0 0.00 0.00 0.00 52 1010.6
20260510074004 60 59 1.0 5.0 0.00 0.00 0.00 53 1010.5
20260510073504 60 59 1.0 5.0 0.00 0.00 0.00 52 1010.4
20260510073004 60 59 1.0 5.0 0.00 0.00 0.00 52 1010.4
20260510072503 60 59 1.0 5.0 0.00 0.00 0.00 53 1010.3
20260510072003 61 59 1.0 5.0 0.00 0.00 0.00 52 1010.2
20260510071504 61 59 1.0 5.0 0.00 0.00 0.00 51 1010.1
20260510071004 61 59 1.0 5.0 0.00 0.00 0.00 53 1010.1
20260510070504 61 59 1.0 5.0 0.00 0.00 0.00 53 1010.2
20260510070004 61 59 1.0 5.0 0.00 0.00 0.00 54 1010.4
20260510065505 61 59 1.0 5.0 0.00 0.00 0.00 56 1010.3
20260510065003 61 60 1.0 6.0 0.00 0.00 0.00 57 1010.2
20260510064503 62 60 1.0 7.0 0.00 0.00 0.00 60 1010.2
20260510064004 62 60 1.0 7.0 0.00 0.00 0.00 64 1010.0
20260510063504 62 46 1.0 6.0 0.00 0.00 0.00 65 1009.9
20260510063003 62 26 1.0 6.0 0.00 0.00 0.00 64 1009.9
20260510062504 62 9 1.0 6.0 0.00 0.00 0.00 68 1009.9
20260510062004 62 332 0.0 8.0 0.00 0.00 0.00 69 1010.1
20260510061504 62 308 1.0 8.0 0.00 0.00 0.00 73 1010.1
20260510061003 62 292 1.0 8.0 0.00 0.00 0.00 76 1010.0
20260510060503 62 270 0.0 3.0 0.00 0.00 0.00 77 1009.8
20260510060003 62 270 0.0 1.0 0.00 0.00 0.00 77 1009.7
20260510055504 62 0 0.0 0.0 0.00 0.00 0.00 76 1009.6
20260510055005 62 0 0.0 0.0 0.00 0.00 0.00 76 1009.4
20260510054503 63 270 0.0 2.0 0.00 0.00 0.00 76 1009.4
20260510054003 63 270 0.0 2.0 0.00 0.00 0.00 76 1009.5
20260510053504 63 270 0.0 3.0 0.00 0.00 0.00 76 1009.5
20260510053005 63 270 0.0 3.0 0.00 0.00 0.00 75 1009.5
20260510052503 63 0 0.0 0.0 0.00 0.00 0.00 75 1009.5
20260510052003 64 270 0.0 2.0 0.00 0.00 0.00 75 1009.3
20260510051503 64 270 1.0 3.0 0.00 0.00 0.00 75 1009.5
20260510051004 64 270 1.0 3.0 0.00 0.00 0.00 75 1009.4
20260510050504 64 270 1.0 3.0 0.00 0.00 0.00 74 1009.4
20260510050004 64 270 1.0 3.0 0.00 0.00 0.00 74 1009.3
20260510045503 64 270 1.0 4.0 0.00 0.00 0.00 74 1009.3
20260510045003 64 270 2.0 7.0 0.00 0.00 0.00 73 1009.2
20260510044505 64 278 2.0 7.0 0.00 0.00 0.00 73 1009.2
20260510044003 64 285 2.0 4.0 0.00 0.00 0.00 73 1009.3
20260510043504 64 285 0.0 3.0 0.00 0.00 0.00 73 1009.2
20260510043004 65 285 1.0 4.0 0.00 0.00 0.00 72 1009.1
20260510042503 65 285 2.0 6.0 0.00 0.00 0.00 72 1009.3
20260510042003 65 284 2.0 6.0 0.00 0.00 0.00 72 1009.3
20260510041503 65 284 3.0 6.0 0.00 0.00 0.00 71 1009.3
20260510041003 65 283 2.0 6.0 0.00 0.00 0.00 71 1009.3
20260510040504 65 283 3.0 8.0 0.00 0.00 0.00 71 1009.2
20260510040004 65 279 4.0 10.0 0.00 0.00 0.00 71 1009.1
20260510035503 65 276 4.0 10.0 0.00 0.00 0.00 71 1009.1
20260510035004 65 278 4.0 10.0 0.00 0.00 0.00 71 1009.1
20260510034504 65 286 5.0 12.0 0.00 0.00 0.00 71 1009.1
20260510034004 65 293 4.0 12.0 0.00 0.00 0.00 71 1009.0
20260510033503 64 303 4.0 12.0 0.00 0.00 0.00 71 1009.2
20260510033004 64 287 4.0 12.0 0.00 0.00 0.00 71 1009.2
20260510032503 64 254 3.0 8.0 0.00 0.00 0.00 72 1008.9
20260510032003 64 251 3.0 8.0 0.00 0.00 0.00 71 1008.7
20260510031504 64 248 3.0 10.0 0.00 0.00 0.00 72 1008.8
20260510031003 64 247 3.0 10.0 0.00 0.00 0.00 71 1008.8
20260510030503 64 250 3.0 9.0 0.00 0.00 0.00 71 1008.7
20260510030005 64 245 4.0 9.0 0.00 0.00 0.00 70 1008.6
20260510025504 64 243 3.0 9.0 0.00 0.00 0.00 70 1008.6
20260510025004 64 241 2.0 8.0 0.00 0.00 0.00 69 1008.6
20260510024503 64 235 2.0 9.0 0.00 0.00 0.00 69 1008.5
20260510024004 64 237 2.0 9.0 0.00 0.00 0.00 68 1008.5
20260510023504 64 240 3.0 6.0 0.00 0.00 0.00 68 1008.5
20260510023004 65 242 3.0 8.0 0.00 0.00 0.00 68 1008.5
20260510022503 65 242 3.0 9.0 0.00 0.00 0.00 67 1008.4
20260510022003 65 238 3.0 9.0 0.00 0.00 0.00 67 1008.4
20260510021504 65 242 3.0 7.0 0.00 0.00 0.00 67 1008.2
20260510021004 66 251 2.0 6.0 0.00 0.00 0.00 66 1008.2
20260510020503 66 250 2.0 8.0 0.00 0.00 0.00 66 1008.1
20260510020004 66 253 2.0 8.0 0.00 0.00 0.00 65 1008.0
20260510015504 66 253 2.0 7.0 0.00 0.00 0.00 65 1007.9
20260510015004 66 241 3.0 7.0 0.00 0.00 0.00 64 1007.8
20260510014503 67 239 2.0 7.0 0.00 0.00 0.00 63 1007.8
20260510014003 67 242 2.0 7.0 0.00 0.00 0.00 63 1007.7
20260510013503 68 240 2.0 7.0 0.00 0.00 0.00 61 1007.6
20260510013005 68 245 2.0 7.0 0.00 0.00 0.00 61 1007.5
20260510012504 68 247 2.0 5.0 0.00 0.00 0.00 60 1007.4
20260510012004 69 245 3.0 9.0 0.00 0.00 0.00 59 1007.4
20260510011503 69 245 4.0 10.0 0.00 0.00 0.00 59 1007.4
20260510011004 69 242 3.0 10.0 0.00 0.00 0.00 58 1007.3
20260510010504 69 245 3.0 9.0 0.00 0.00 0.00 58 1007.2
20260510010005 70 250 5.0 11.0 0.00 0.00 0.00 57 1007.1
20260510005503 70 251 5.0 12.0 0.00 0.00 0.00 57 1007.1
20260510005003 70 253 4.0 12.0 0.00 0.00 0.00 57 1007.0
20260510004505 70 252 4.0 10.0 0.00 0.00 0.00 56 1007.0
20260510004004 70 251 6.0 12.0 0.00 0.00 0.00 56 1006.9
20260510003504 70 255 5.0 14.0 0.00 0.00 0.00 55 1007.0
20260510003005 71 257 4.0 14.0 0.00 0.00 0.00 55 1006.8
20260510002503 71 255 5.0 10.0 0.00 0.00 0.00 55 1006.8
20260510002004 71 254 4.0 8.0 0.00 0.00 0.00 56 1006.7
20260510001504 71 261 4.0 11.0 0.00 0.00 0.00 55 1006.7
20260510001003 71 263 5.0 12.0 0.00 0.00 0.00 55 1006.7
20260510000503 71 261 7.0 16.0 0.00 0.00 0.00 54 1006.7
20260510000004 71 263 7.0 16.0 0.00 0.00 0.00 54 1006.7
20260509235504 72 260 6.0 12.0 0.00 0.00 0.00 53 1006.6
20260509235003 72 266 6.0 12.0 0.00 0.00 0.00 53 1006.5
20260509234503 72 264 6.0 13.0 0.00 0.00 0.00 52 1006.5
20260509234003 72 260 7.0 15.0 0.00 0.00 0.00 51 1006.4
20260509233504 72 269 8.0 15.0 0.00 0.00 0.00 51 1006.4
20260509233004 72 270 7.0 15.0 0.00 0.00 0.00 51 1006.4
20260509232503 72 266 8.0 18.0 0.00 0.00 0.00 51 1006.4
20260509232003 72 263 10.0 20.0 0.00 0.00 0.00 51 1006.3
20260509231503 72 263 9.0 20.0 0.00 0.00 0.00 51 1006.4
20260509231003 73 267 8.0 15.0 0.00 0.00 0.00 50 1006.3
20260509230504 73 274 8.0 16.0 0.00 0.00 0.00 50 1006.3
20260509230005 73 271 9.0 16.0 0.00 0.00 0.00 49 1006.3
20260509225503 73 265 8.0 16.0 0.00 0.00 0.00 49 1006.3
20260509225003 73 267 7.0 16.0 0.00 0.00 0.00 49 1006.3
20260509224504 74 266 9.0 18.0 0.00 0.00 0.00 48 1006.4
20260509224004 74 265 10.0 22.0 0.00 0.00 0.00 46 1006.3
20260509223503 74 261 9.0 22.0 0.00 0.00 0.00 47 1006.3
20260509223003 74 263 9.0 18.0 0.00 0.00 0.00 46 1006.3
20260509222505 74 265 9.0 19.0 0.00 0.00 0.00 46 1006.2
20260509222004 74 260 10.0 20.0 0.00 0.00 0.00 46 1006.1
20260509221503 75 254 9.0 20.0 0.00 0.00 0.00 48 1006.1
20260509221003 75 262 8.0 19.0 0.00 0.00 0.00 47 1006.1
20260509220504 75 276 7.0 19.0 0.00 0.00 0.00 47 1006.2
20260509220004 76 274 7.0 18.0 0.00 0.00 0.00 46 1006.0
20260509215503 76 277 9.0 24.0 0.00 0.00 0.00 46 1006.0
20260509215003 76 277 9.0 24.0 0.00 0.00 0.00 46 1006.0
20260509214504 76 274 9.0 19.0 0.00 0.00 0.00 47 1006.1
20260509214003 76 274 9.0 22.0 0.00 0.00 0.00 47 1006.0
20260509213503 76 272 10.0 22.0 0.00 0.00 0.00 46 1006.0
20260509213004 75 269 10.0 18.0 0.00 0.00 0.00 45 1005.9
20260509212505 75 265 9.0 20.0 0.00 0.00 0.00 45 1005.9
20260509212004 75 266 9.0 20.0 0.00 0.00 0.00 45 1005.9
20260509211504 75 267 11.0 18.0 0.00 0.00 0.00 45 1005.9
20260509211003 75 270 12.0 20.0 0.00 0.00 0.00 44 1005.9
20260509210503 76 274 11.0 21.0 0.00 0.00 0.00 43 1006.0
20260509210003 76 270 11.0 21.0 0.00 0.00 0.00 42 1005.8
20260509205504 76 256 10.0 20.0 0.00 0.00 0.00 43 1005.9
20260509205004 76 252 10.0 24.0 0.00 0.00 0.00 42 1005.8
20260509204503 76 254 8.0 24.0 0.00 0.00 0.00 44 1005.9
20260509204004 76 260 8.0 18.0 0.00 0.00 0.00 44 1005.9
20260509203504 76 267 9.0 19.0 0.00 0.00 0.00 44 1005.9
20260509203003 76 256 9.0 19.0 0.00 0.00 0.00 43 1006.0
20260509202505 76 248 8.0 19.0 0.00 0.00 0.00 45 1006.0
20260509202005 76 252 8.0 18.0 0.00 0.00 0.00 46 1006.1
20260509201503 76 248 8.0 18.0 0.00 0.00 0.00 45 1006.1
20260509201003 76 241 8.0 19.0 0.00 0.00 0.00 46 1006.2
20260509200504 76 240 9.0 20.0 0.00 0.00 0.00 47 1006.2
20260509200004 76 248 10.0 20.0 0.00 0.00 0.00 47 1006.2
20260509195504 76 255 8.0 20.0 0.00 0.00 0.00 47 1006.2
20260509195003 76 250 6.0 18.0 0.00 0.00 0.00 49 1006.2
20260509194503 76 246 7.0 18.0 0.00 0.00 0.00 51 1006.2
20260509194003 75 245 8.0 18.0 0.00 0.00 0.00 50 1006.3
20260509193505 75 239 6.0 15.0 0.00 0.00 0.00 51 1006.4
20260509193004 75 245 5.0 15.0 0.00 0.00 0.00 54 1006.4
20260509192503 75 245 7.0 16.0 0.00 0.00 0.00 53 1006.4
20260509192003 74 241 7.0 16.0 0.00 0.00 0.00 51 1006.4
20260509191504 74 240 7.0 16.0 0.00 0.00 0.00 53 1006.5
20260509191004 74 244 8.0 16.0 0.00 0.00 0.00 53 1006.5
20260509190503 74 237 8.0 18.0 0.00 0.00 0.00 51 1006.4
20260509190003 74 228 6.0 18.0 0.00 0.00 0.00 52 1006.4
20260509185503 74 238 6.0 13.0 0.00 0.00 0.00 54 1006.4
20260509185004 73 232 6.0 16.0 0.00 0.00 0.00 53 1006.5
20260509184504 73 240 8.0 16.0 0.00 0.00 0.00 54 1006.5
20260509184004 73 253 7.0 16.0 0.00 0.00 0.00 53 1006.5
20260509183503 73 242 8.0 19.0 0.00 0.00 0.00 56 1006.6
20260509183004 73 240 10.0 19.0 0.00 0.00 0.00 57 1006.6
20260509182505 73 247 7.0 18.0 0.00 0.00 0.00 56 1006.6
20260509182003 72 231 5.0 16.0 0.00 0.00 0.00 61 1006.6
20260509181504 72 214 6.0 16.0 0.00 0.00 0.00 60 1006.6
20260509181003 72 225 8.0 16.0 0.00 0.00 0.00 60 1006.5
20260509180504 71 239 7.0 16.0 0.00 0.00 0.00 59 1006.7
20260509180004 71 247 6.0 15.0 0.00 0.00 0.00 61 1006.7
20260509175503 71 237 6.0 15.0 0.00 0.00 0.00 60 1006.7
20260509175004 71 219 7.0 14.0 0.00 0.00 0.00 60 1006.7
20260509174504 71 234 8.0 18.0 0.00 0.00 0.00 59 1006.8
20260509174003 71 239 7.0 18.0 0.00 0.00 0.00 60 1006.8
20260509173504 71 247 7.0 18.0 0.00 0.00 0.00 62 1006.9
20260509173004 71 254 8.0 18.0 0.00 0.00 0.00 59 1006.9
20260509172503 71 245 7.0 15.0 0.00 0.00 0.00 61 1007.0
20260509172003 70 236 6.0 17.0 0.00 0.00 0.00 63 1007.1
20260509171504 70 229 5.0 17.0 0.00 0.00 0.00 61 1007.2
20260509171004 70 226 3.0 13.0 0.00 0.00 0.00 64 1007.2
20260509170505 70 231 4.0 13.0 0.00 0.00 0.00 65 1007.1
20260509170003 69 233 5.0 13.0 0.00 0.00 0.00 62 1007.2
20260509165503 69 237 6.0 13.0 0.00 0.00 0.00 66 1007.3
20260509165005 68 244 6.0 18.0 0.00 0.00 0.00 64 1007.3
20260509164504 69 236 6.0 18.0 0.00 0.00 0.00 63 1007.2
20260509164004 68 217 5.0 15.0 0.00 0.00 0.00 65 1007.4
20260509163505 68 233 5.0 15.0 0.00 0.00 0.00 65 1007.4
20260509163003 68 237 5.0 13.0 0.00 0.00 0.00 67 1007.3
20260509162503 68 243 4.0 13.0 0.00 0.00 0.00 66 1007.2
20260509162004 67 253 4.0 11.0 0.00 0.00 0.00 67 1007.2
20260509161504 67 232 4.0 12.0 0.00 0.00 0.00 68 1007.2
20260509161003 66 234 6.0 16.0 0.00 0.00 0.00 69 1007.2
20260509160504 66 237 7.0 16.0 0.00 0.00 0.00 68 1007.2
20260509160003 66 241 7.0 16.0 0.00 0.00 0.00 68 1007.3
20260509155504 66 247 7.0 19.0 0.00 0.00 0.00 68 1007.3
20260509155004 65 247 6.0 19.0 0.00 0.00 0.00 69 1007.2
20260509154504 65 238 5.0 13.0 0.00 0.00 0.00 69 1007.2
20260509154003 65 229 5.0 13.0 0.00 0.00 0.00 70 1007.2
20260509153505 65 234 6.0 14.0 0.00 0.00 0.00 71 1007.3
20260509153003 65 235 5.0 14.0 0.00 0.00 0.00 70 1007.2
20260509152505 65 235 5.0 20.0 0.00 0.00 0.00 72 1007.2
20260509152005 64 241 6.0 20.0 0.00 0.00 0.00 71 1007.2
20260509151504 64 228 5.0 15.0 0.00 0.00 0.00 72 1007.1
20260509151003 64 220 5.0 15.0 0.00 0.00 0.00 72 1007.2
20260509150503 64 246 6.0 14.0 0.00 0.00 0.00 74 1007.2
20260509150003 63 258 7.0 14.0 0.00 0.00 0.00 73 1007.2
20260509145504 63 258 8.0 17.0 0.00 0.00 0.00 74 1007.1
20260509145004 63 251 7.0 17.0 0.00 0.00 0.00 75 1007.1
20260509144503 62 244 6.0 12.0 0.00 0.00 0.00 77 1007.1
20260509144003 62 254 5.0 12.0 0.00 0.00 0.00 79 1007.1
20260509143503 61 258 7.0 20.0 0.00 0.00 0.00 79 1007.1
20260509143003 61 258 9.0 20.0 0.00 0.00 0.00 79 1007.1
20260509142504 60 256 7.0 15.0 0.00 0.00 0.00 83 1007.1
20260509142005 60 248 7.0 18.0 0.00 0.00 0.00 84 1007.1
20260509141503 60 251 6.0 18.0 0.00 0.00 0.00 86 1007.1
20260509141003 60 246 3.0 12.0 0.00 0.00 0.00 88 1007.1
20260509140504 59 224 1.0 11.0 0.00 0.00 0.00 89 1007.2
20260509140006 59 238 2.0 8.0 0.00 0.00 0.00 89 1007.1
20260509135503 58 236 3.0 13.0 0.00 0.00 0.00 89 1007.1
20260509135003 58 234 2.0 13.0 0.00 0.00 0.00 89 1007.1
20260509134503 58 229 1.0 8.0 0.00 0.00 0.00 89 1007.0
20260509134005 58 219 1.0 9.0 0.00 0.00 0.00 89 1006.9
20260509133504 57 215 1.0 9.0 0.00 0.00 0.00 89 1006.9
20260509133004 57 221 1.0 8.0 0.00 0.00 0.00 89 1007.0
20260509132504 57 242 2.0 10.0 0.00 0.00 0.00 89 1006.9
20260509132003 56 240 2.0 10.0 0.00 0.00 0.00 89 1006.9
20260509131503 56 216 0.0 8.0 0.00 0.00 0.00 89 1006.9
20260509131004 56 224 0.0 8.0 0.00 0.00 0.00 89 1006.9
20260509130504 56 219 0.0 6.0 0.00 0.00 0.00 89 1007.0
20260509130004 56 209 0.0 6.0 0.00 0.00 0.00 89 1007.0
20260509125503 56 0 0.0 0.0 0.00 0.00 0.00 89 1007.0
20260509125003 56 252 1.0 9.0 0.00 0.00 0.00 89 1007.0
20260509124504 56 252 1.0 9.0 0.00 0.00 0.00 89 1007.0
20260509124004 55 0 0.0 0.0 0.00 0.00 0.00 89 1007.0
20260509123503 55 0 0.0 0.0 0.00 0.00 0.00 89 1007.1
20260509123003 55 0 0.0 0.0 0.00 0.00 0.00 89 1007.1
20260509122503 55 0 0.0 0.0 0.00 0.00 0.00 89 1007.0
20260509122004 55 0 0.0 0.0 0.00 0.00 0.00 89 1006.8
20260509121503 54 215 1.0 3.0 0.00 0.00 0.00 89 1006.8
20260509121003 54 214 1.0 8.0 0.00 0.00 0.00 89 1006.7
20260509120503 54 213 1.0 8.0 0.00 0.00 0.00 88 1006.7
20260509120005 54 217 1.0 3.0 0.00 0.00 0.00 88 1006.6
20260509115504 53 229 2.0 7.0 0.00 0.00 0.00 88 1006.5
20260509115004 53 229 2.0 7.0 0.00 0.00 0.00 88 1006.6
20260509114504 53 229 2.0 7.0 0.00 0.00 0.00 88 1006.5
20260509114003 53 229 2.0 7.0 0.00 0.00 0.00 88 1006.5
20260509113503 53 229 2.0 7.0 0.00 0.00 0.00 88 1006.6
20260509113004 53 229 2.0 7.0 0.00 0.00 0.00 88 1006.7
20260509112503 53 229 2.0 7.0 0.00 0.00 0.00 88 1006.7
20260509112003 53 229 2.0 7.0 0.00 0.00 0.00 88 1006.6
20260509111504 53 229 2.0 7.0 0.00 0.00 0.00 88 1006.6
20260509111003 54 229 2.0 7.0 0.00 0.00 0.00 88 1006.5
20260509110503 54 229 2.0 7.0 0.00 0.00 0.00 88 1006.5
20260509110004 54 229 2.0 7.0 0.00 0.00 0.00 88 1006.5
20260509105503 54 229 2.0 7.0 0.00 0.00 0.00 88 1006.4
20260509105003 54 229 2.0 7.0 0.00 0.00 0.00 88 1006.4
20260509104503 54 229 2.0 7.0 0.00 0.00 0.00 88 1006.4
20260509104004 54 229 2.0 7.0 0.00 0.00 0.00 88 1006.3
20260509103505 54 229 2.0 7.0 0.00 0.00 0.00 88 1006.3
20260509103003 54 229 2.0 7.0 0.00 0.00 0.00 88 1006.3
20260509102503 54 229 2.0 7.0 0.00 0.00 0.00 88 1006.3
20260509102003 54 229 2.0 7.0 0.00 0.00 0.00 88 1006.2
20260509101504 54 229 2.0 7.0 0.00 0.00 0.00 88 1006.3
20260509101004 54 229 2.0 7.0 0.00 0.00 0.00 88 1006.3
20260509100503 54 229 2.0 7.0 0.00 0.00 0.00 88 1006.3
20260509100006 54 229 2.0 7.0 0.00 0.00 0.00 88 1006.2
20260509095503 55 229 2.0 7.0 0.00 0.00 0.00 88 1006.3
20260509095004 55 229 2.0 7.0 0.00 0.00 0.00 88 1006.2
20260509094503 55 229 2.0 7.0 0.00 0.00 0.00 88 1006.3
20260509094003 55 229 2.0 7.0 0.00 0.00 0.00 88 1006.2
20260509093504 55 229 2.0 7.0 0.00 0.00 0.00 88 1006.2
20260509093005 55 229 2.0 7.0 0.00 0.00 0.00 88 1006.3
20260509092503 55 229 2.0 7.0 0.00 0.00 0.00 88 1006.4
20260509092003 55 229 2.0 7.0 0.00 0.00 0.00 88 1006.4
20260509091505 55 229 2.0 7.0 0.00 0.00 0.00 88 1006.4